sat.trackr.live / text

‹ back to catalog

STARLINK-35592

NORAD 66136 · 2025-237Y

PAYLOAD ACTIVE UNKNOWN

§ Identity

Operator
Country
US
Launch date
2025-10-22
Launch site
AFWTR
Launch vehicle
Mass (kg)
RCS (m²)

Purposes: comms

External: N2YO · Heavens-Above · Gunter

§ Orbital elements

Epoch: 2026-09-20T13:41:03.837120Z

Period
93.85 min
Inclination
53.1581°
Eccentricity
0.0001665
Mean motion
15.34434769 rev/d
Perigee alt
461.5 km
Apogee alt
463.7 km
Semi-major
6,840.7 km
B*
6.2122e-4
RAAN
211.1551°
Arg perigee
76.9035°
Mean anomaly
283.2154°
Rev number
5,249

§ Raw data

STARLINK-355921 66136U 25237Y   26263.57018330  .00020694  00000+0  62122-3 0  99932 66136  53.1581 211.1551 0001665  76.9035 283.2154 15.34434769 52492

JSON: /api/v1/satellites/66136 · /tle

For live sub-satellite position, see the globe view (requires WebGL).

§ Visibility from observer

Set your observer location to see the next 7 days of passes ≥ 10°. The values pass through the URL so the page stays shareable.

No JS? Fill the form by hand. The geolocation button needs JavaScript.